RH
60 76 74 77 87 96 94 94 90 96 100 100 94 90 75 67 58 47 46 41 39 40 38 31 23 24 23 25 26 24 17 14 19 24 22 19 17 16
72 90 98 96 92 92 100 99 91 89 95 89 91 88 76 71 67 65 58 49 44 35 27 26 24 24 24 25 18 14 17 22 19 18 17 16 15 14
59 75 86 86 82 80 76 80 78 71 72 79 64 63 58 58 57 52 45 42 38 30 28 27 24 24 19 15 17 20 18 17 15 12 10 8 8 6
67 71 79 85 82 77 73 69 69 66 63 62 61 60 55 51 47 40 36 30 29 28 24 23 16 16 20 24 19 17 14 12 8 5 4 4 4 3
64 74 80 83 80 75 68 62 60 58 52 49 50 48 48 45 38 32 35 34 29 20 16 18 23 25 19 16 13 9 6 5 4 3 2 2 2 2
70 69 69 71 68 68 68 62 56 55 54 50 51 47 38 38 40 41 39 25 21 22 28 27 20 17 14 9 5 5 4 3 3 3 3 3 3 3
78 74 66 66 69 64 61 60 59 57 55 53 47 44 48 50 40 27 19 26 32 25 24 20 12 8 5 5 4 3 3 4 4 3 3 3 3 3
79 75 70 66 62 66 64 62 61 54 44 45 50 47 40 24 19 27 30 29 32 17 10 7 5 5 3 2 3 4 4 4 3 3 3 3 3 3
80 79 87 92 84 77 65 55 51 51 51 48 36 23 26 27 27 28 24 16 10 7 6 7 4 3 3 3 3 4 4 4 4 3 4 5 6 6
92 96 84 76 70 59 54 64 68 54 33 30 34 32 27 24 21 14 9 8 7 6 4 4 3 4 3 2 3 4 6 8 7 6 6 7 8 7
84 81 69 60 64 69 68 58 40 37 44 39 30 25 21 15 9 8 7 6 4 3 3 4 4 4 3 2 3 6 9 11 9 8 7 7 8 8
75 74 78 78 68 52 37 38 47 49 44 33 26 18 12 8 6 5 4 3 3 4 4 4 3 5 5 4 4 6 9 8 7 7 7 8 8 9
87 79 68 55 44 45 52 50 51 43 33 25 18 10 7 6 4 3 3 4 4 3 4 6 5 5 6 5 4 6 7 6 5 6 6 7 7 8
72 59 52 54 61 58 55 53 41 29 21 14 8 7 5 3 4 4 4 4 4 5 6 5 4 4 4 4 5 5 7 6 6 6 6 6 6 8
61 68 67 62 59 53 45 34 24 16 10 8 6 4 4 4 4 4 5 5 4 4 4 4 4 4 4 6 5 7 6 7 6 7 7 7 7 8
69 61 56 53 46 38 26 18 12 9 7 5 4 5 4 4 4 4 4 4 3 4 5 5 4 5 6 6 6 7 7 8 8 8 7 8 9 10
60 53 45 38 28 19 14 10 8 5 4 5 5 4 5 4 4 4 4 4 5 5 6 7 6 6 6 7 7 7 8 10 8 8 7 8 12 11
44 39 33 21 14 11 8 6 4 5 5 5 5 5 5 4 4 4 4 5 5 6 6 6 6 6 6 6 7 8 9 9 9 13 15 14 13 9
32 21 14 12 9 6 5 5 6 6 5 6 6 5 5 5 4 4 4 4 5 5 5 5 6 6 7 8 9 9 10 14 13 10 9 8 7 6
15 12 9 7 6 5 6 7 6 7 7 6 6 5 5 4 4 4 4 4 5 5 5 6 7 8 9 11 14 15 13 11 10 9 7 5 4 4
10 8 6 5 6 7 7 6 9 8 7 7 6 6 5 4 4 4 4 5 5 6 7 8 9 10 14 15 13 11 10 9 8 6 6 5 5 4
6 6 6 7 8 8 8 10 8 8 7 6 7 6 5 5 5 5 5 6 6 7 9 11 16 17 14 11 11 10 8 8 8 7 6 5 4 4
6 7 9 8 8 9 12 9 9 9 7 9 8 6 7 7 7 6 7 8 10 14 17 17 15 13 12 12 10 9 9 8 8 7 7 7 6 5
Wind_Speed
68 71 72 73 75 77 78 79 79 77 79 86 87 92 93 94 96 97 99 100 102 104 106 108 109 110 112 114 118 121 124 123 115 105 104 104 103 103
70 74 74 76 78 80 82 82 83 83 83 88 91 94 96 99 100 102 104 106 108 111 112 112 113 115 117 122 125 125 118 109 110 111 113 112 113 114
67 71 74 76 78 80 81 85 88 89 89 91 93 96 98 100 102 104 107 110 113 115 115 117 119 121 125 126 120 109 111 114 117 118 118 117 114 113
66 69 73 76 78 80 83 86 88 91 92 93 96 98 100 102 103 105 108 110 112 117 118 121 125 126 119 110 112 115 115 117 118 115 109 104 100 97
66 69 73 76 79 81 83 84 87 90 93 93 94 98 100 104 104 105 109 114 118 120 124 125 115 110 112 114 116 115 112 107 101 98 93 88 84 81
66 69 72 75 78 81 83 85 87 89 92 94 95 98 102 106 109 111 115 121 126 123 114 113 112 113 116 113 108 101 96 94 89 84 80 77 75 74
67 69 70 71 73 76 80 83 86 90 93 95 98 103 108 113 116 119 119 117 114 112 113 117 115 113 107 98 92 89 85 85 82 79 75 71 68 67
70 69 68 68 71 75 79 83 88 93 96 100 105 109 114 118 117 111 108 110 117 121 113 109 102 99 95 87 80 79 79 79 75 70 65 62 60 58
67 66 67 70 74 78 83 89 95 102 106 110 113 115 114 110 108 110 113 113 114 110 99 93 93 91 84 80 73 69 68 68 66 61 57 55 53 53
65 69 72 76 82 86 90 97 105 111 114 116 114 109 108 111 112 111 109 105 103 101 90 83 85 83 80 74 61 55 53 58 60 54 50 46 46 46
72 76 79 84 90 96 101 106 110 112 112 111 110 112 113 112 108 103 98 95 92 90 81 77 76 72 72 69 52 43 45 50 52 50 48 46 46 46
81 85 90 95 100 104 105 106 106 109 113 115 117 116 111 105 98 93 87 84 81 79 74 72 65 58 64 61 46 40 48 52 53 53 52 51 49 50
88 94 98 102 105 104 104 106 110 114 117 117 115 110 103 98 92 86 78 74 73 68 63 61 60 54 54 64 47 47 52 55 52 50 50 49 48 48
94 98 99 100 100 104 108 112 117 117 115 110 103 99 94 87 80 77 72 67 62 58 58 56 57 55 54 54 54 43 45 45 44 44 43 41 41 42
93 95 97 101 105 110 114 116 115 110 101 97 94 88 80 76 72 67 64 61 61 55 56 57 55 49 42 42 40 38 39 38 38 38 38 36 36 38
94 100 104 109 113 115 114 110 102 96 92 87 80 76 73 69 64 61 62 60 58 52 43 47 45 38 32 34 32 34 32 33 34 34 31 28 32 34
101 106 111 113 113 109 102 94 89 84 78 72 69 67 64 62 61 56 53 52 47 44 34 32 33 29 28 27 27 29 27 27 27 26 24 24 28 29
107 110 111 107 101 93 87 81 76 71 67 65 60 59 61 58 54 50 44 40 35 29 27 24 24 23 22 22 22 22 19 19 17 19 22 23 25 28
106 102 97 91 85 79 75 70 66 62 59 57 59 57 55 52 45 39 35 29 25 22 20 19 19 18 16 15 14 13 13 14 15 15 16 17 18 20
92 89 83 79 73 67 63 60 57 53 53 56 54 52 48 44 39 33 27 22 20 17 16 14 13 11 10 8 8 9 9 11 12 13 13 13 13 12
82 78 71 66 61 57 55 51 48 50 53 51 48 45 42 37 31 26 22 18 15 13 10 9 8 7 5 5 5 6 7 9 10 10 12 13 13 13
70 64 60 55 52 50 47 44 45 48 47 44 41 38 33 29 25 21 18 15 13 9 7 6 6 6 5 7 10 11 11 10 10 11 11 10 10 9
59 54 50 48 45 42 41 42 44 43 40 38 35 30 28 25 22 19 16 11 9 9 9 9 8 8 10 10 10 9 9 10 11 11 10 10 9 9
Wind_Direction
278 276 276 276 276 277 278 277 277 277 280 282 283 285 285 285 285 285 285 285 286 286 285 284 286 287 287 288 287 287 287 286 284 281 279 277 275 272
276 275 276 277 277 277 278 278 278 277 277 278 281 282 284 285 286 286 287 288 287 286 286 286 287 288 288 288 288 288 286 283 282 281 278 276 274 272
280 277 276 276 277 278 278 278 279 279 279 279 280 280 281 282 284 286 286 287 287 288 289 289 290 290 290 290 288 285 284 283 281 279 278 278 276 274
286 282 280 279 279 280 281 281 282 283 282 281 282 283 284 285 285 285 286 287 289 288 289 290 290 291 289 287 286 285 284 283 282 280 279 277 275 273
288 287 285 282 282 282 283 284 284 284 284 284 285 285 286 285 286 289 290 290 290 291 292 292 291 289 289 287 288 286 287 285 282 280 279 277 274 271
290 290 288 286 285 285 285 287 287 288 288 287 288 288 289 291 292 292 293 294 294 294 293 291 290 291 289 289 289 288 286 284 283 282 280 278 275 272
292 292 290 288 287 287 288 289 289 289 289 290 290 291 292 293 293 294 295 296 295 294 294 293 292 292 291 290 289 289 287 286 284 282 281 279 275 270
293 292 290 290 291 290 290 290 290 290 290 292 293 293 293 294 295 297 298 299 298 294 293 294 294 292 290 291 290 288 287 285 283 282 280 277 273 269
292 291 294 294 294 293 293 294 295 295 295 295 295 296 297 299 300 302 300 298 296 295 296 298 294 291 292 290 290 288 285 283 282 281 279 277 274 271
294 295 296 295 295 297 298 297 296 297 298 299 299 299 301 303 303 301 300 299 298 297 297 297 293 293 293 289 289 286 282 280 280 281 279 276 275 272
295 296 297 299 299 299 299 299 299 299 300 300 302 304 304 303 301 301 301 300 299 296 298 294 293 293 291 290 292 287 278 275 278 279 278 277 273 272
300 301 301 300 299 299 300 301 302 301 302 304 306 306 304 303 302 302 301 299 298 297 297 294 293 291 290 290 292 286 279 276 274 274 274 272 269 267
301 301 301 301 302 303 303 303 303 302 304 306 306 305 305 304 304 303 301 300 298 297 295 294 294 292 289 291 291 286 280 276 275 273 268 265 263 260
300 300 300 301 302 302 303 303 302 305 306 306 305 305 305 305 304 303 303 300 297 297 297 294 292 291 289 287 288 284 275 274 273 272 269 265 261 257
301 301 302 302 303 303 302 303 306 307 307 306 306 307 306 306 306 304 304 303 301 301 297 294 293 293 292 286 282 277 276 275 273 269 267 264 259 256
302 304 304 304 304 303 304 307 307 308 307 307 308 308 309 307 307 308 307 303 303 302 300 295 294 296 288 279 277 272 272 271 273 271 268 260 256 255
303 304 304 303 303 306 307 307 308 307 309 310 310 310 308 309 310 309 306 305 305 305 306 297 295 292 285 277 271 272 272 275 275 274 267 254 258 259
305 303 303 305 307 308 308 309 309 311 312 312 312 313 314 313 315 314 312 309 307 308 305 297 292 290 284 280 277 280 279 272 266 259 258 257 255 263
303 305 307 308 309 309 310 311 313 314 315 317 318 318 318 320 321 320 318 314 308 305 303 301 296 292 290 289 289 282 263 252 257 268 276 274 263 260
307 309 310 310 311 312 313 315 316 318 321 322 322 323 324 326 327 325 322 316 315 315 316 310 308 304 308 296 282 286 286 292 295 290 284 280 281 278
311 311 312 314 314 315 317 318 320 324 325 325 327 329 331 329 326 327 327 331 337 336 330 330 332 336 333 302 289 300 315 318 315 316 318 316 308 298
313 314 316 316 316 319 320 323 326 327 328 330 333 334 334 338 341 344 348 354 354 356 15 27 25 12 353 348 354 355 351 351 339 327 321 308 296 291
317 317 317 318 320 322 325 327 330 332 334 336 336 342 348 351 352 354 1 18 41 54 53 49 39 21 14 11 10 17 10 2 350 344 350 349 345 339